FW2887 Weather Reports


time (UTC)temp
C
wind
direction
speed
KPH
gust
KPH
rain 1hr
cm
rain 24hr
cm
rain mn
cm
humidity
%
barometer
mb
20260505152227 23 197 0.0 0.0 0.00 0.00 0.00 45 1017.3
20260505151726 23 245 0.0 0.0 0.00 0.00 0.00 48 1017.2
20260505151225 22 247 0.0 0.0 0.00 0.00 0.00 47 1017.4
20260505150731 22 211 0.0 0.0 0.00 0.00 0.00 50 1017.3
20260505150251 22 249 0.0 1.6 0.00 0.00 0.00 50 1017.3
20260505140222 20 316 4.8 14.5 0.00 0.00 0.00 58 1017.2
20260505130218 17 275 4.8 24.1 0.00 0.00 0.00 64 1017.2
20260505124729 17 201 4.8 14.5 0.00 0.00 0.00 65 1017.4
20260505124253 17 243 4.8 12.9 0.00 0.00 0.00 65 1017.4
20260505123732 16 261 4.8 12.9 0.00 0.00 0.00 66 1017.3
20260505123241 16 176 3.2 16.1 0.00 0.00 0.00 66 1017.3
20260505122721 16 230 0.0 16.1 0.00 0.00 0.00 67 1017.4
20260505122221 16 199 0.0 14.5 0.00 0.00 0.00 68 1017.4
20260505121727 16 309 0.0 19.3 0.00 0.00 0.00 68 1017.4
20260505121227 16 240 1.6 16.1 0.00 0.00 0.00 68 1017.4
20260505120734 16 221 0.0 8.0 0.00 0.00 0.00 68 1017.3
20260505120235 16 321 1.6 17.7 0.00 0.00 0.00 68 1017.2
20260505115719 15 321 1.6 17.7 0.00 0.00 0.00 68 1017.2
20260505115244 15 321 0.0 0.0 0.00 0.00 0.00 68 1017.1
20260505114751 15 321 0.0 9.7 0.00 0.00 0.00 69 1017.1
20260505114231 15 321 3.2 12.9 0.00 0.00 0.00 69 1017.1
20260505113736 15 321 1.6 12.9 0.00 0.00 0.00 68 1017.1
20260505113218 15 321 3.2 9.7 0.00 0.00 0.00 69 1017.0
20260505112727 15 321 0.0 12.9 0.00 0.00 0.00 70 1017.0
20260505112227 15 321 0.0 12.9 0.00 0.00 0.00 69 1017.0
20260505111728 15 250 0.0 9.7 0.00 0.00 0.00 69 1017.0
20260505111235 15 321 4.8 9.7 0.00 0.00 0.00 69 1016.9
20260505110715 15 256 1.6 9.7 0.00 0.00 0.00 70 1016.7
20260505110214 15 321 1.6 12.9 0.00 0.00 0.00 70 1016.7
20260505102221 14 228 0.0 8.0 0.00 0.00 0.00 72 1016.3
20260505101727 13 321 1.6 12.9 0.00 0.00 0.00 72 1016.2
20260505101228 13 321 1.6 12.9 0.00 0.00 0.00 73 1016.2
20260505100728 13 201 0.0 0.0 0.00 0.00 0.00 73 1016.1
20260505100236 13 321 0.0 0.0 0.00 0.00 0.00 74 1016.1
20260505095714 13 321 0.0 8.0 0.00 0.00 0.00 73 1016.0
20260505095242 13 321 1.6 8.0 0.00 0.00 0.00 74 1016.1
20260505094720 13 321 0.0 1.6 0.00 0.00 0.00 73 1016.0
20260505094224 13 321 0.0 1.6 0.00 0.00 0.00 73 1015.9
20260505093730 13 321 0.0 0.0 0.00 0.00 0.00 73 1015.9
20260505093230 13 321 0.0 0.0 0.00 0.00 0.00 72 1015.9
20260505092737 13 321 0.0 0.0 0.00 0.00 0.00 72 1015.9
20260505092224 13 321 0.0 0.0 0.00 0.00 0.00 72 1015.9
20260505091734 13 321 0.0 0.0 0.00 0.00 0.00 71 1015.9
20260505091212 14 321 0.0 0.0 0.00 0.00 0.00 71 1015.8
20260505090759 14 321 0.0 0.0 0.00 0.00 0.00 70 1015.8
20260505090220 14 321 0.0 0.0 0.00 0.00 0.00 70 1015.8
20260505085721 14 321 0.0 0.0 0.00 0.00 0.00 69 1015.8
20260505085250 14 321 0.0 0.0 0.00 0.00 0.00 69 1015.8
20260505084755 14 226 0.0 0.0 0.00 0.00 0.00 69 1015.8
20260505084213 15 321 0.0 0.0 0.00 0.00 0.00 69 1015.7
20260505083739 15 321 0.0 0.0 0.00 0.00 0.00 68 1015.6
20260505083218 15 321 0.0 0.0 0.00 0.00 0.00 67 1015.7
20260505082717 15 229 0.0 0.0 0.00 0.00 0.00 67 1015.8
20260505082224 15 321 0.0 0.0 0.00 0.00 0.00 67 1015.8
20260505081724 15 321 0.0 0.0 0.00 0.00 0.00 66 1015.8
20260505081251 15 321 0.0 0.0 0.00 0.00 0.00 66 1015.7
20260505080731 15 321 0.0 0.0 0.00 0.00 0.00 67 1015.6
20260505080237 15 321 0.0 0.0 0.00 0.00 0.00 67 1015.6
20260505075717 15 321 0.0 0.0 0.00 0.00 0.00 65 1015.5
20260505075217 15 259 0.0 0.0 0.00 0.00 0.00 66 1015.4
20260505074718 15 290 0.0 0.0 0.00 0.00 0.00 65 1015.5
20260505074226 15 252 0.0 0.0 0.00 0.00 0.00 64 1015.4
20260505073728 16 264 0.0 0.0 0.00 0.00 0.00 65 1015.4
20260505073236 16 257 0.0 0.0 0.00 0.00 0.00 64 1015.4
20260505072717 16 257 0.0 0.0 0.00 0.00 0.00 64 1015.4
20260505072237 16 257 0.0 0.0 0.00 0.00 0.00 64 1015.4
20260505071743 16 241 0.0 0.0 0.00 0.00 0.00 64 1015.3
20260505071229 16 213 0.0 0.0 0.00 0.00 0.00 64 1015.3
20260505070713 16 218 0.0 0.0 0.00 0.00 0.00 63 1015.3
20260505070235 16 249 0.0 0.0 0.00 0.00 0.00 63 1015.3
20260505065722 16 238 0.0 6.4 0.00 0.00 0.00 63 1015.3
20260505065223 16 238 0.0 12.9 0.00 0.00 0.00 63 1015.3
20260505064731 16 166 1.6 8.0 0.00 0.00 0.00 63 1015.3
20260505064231 16 177 0.0 12.9 0.00 0.00 0.00 63 1015.3
20260505063711 16 243 1.6 12.9 0.00 0.00 0.00 64 1015.2
20260505063220 16 226 0.0 6.4 0.00 0.00 0.00 64 1015.2
20260505062719 16 230 0.0 1.6 0.00 0.00 0.00 64 1015.2
20260505062221 16 219 0.0 6.4 0.00 0.00 0.00 63 1015.2
20260505061727 16 187 1.6 6.4 0.00 0.00 0.00 62 1015.2
20260505061227 16 128 0.0 0.0 0.00 0.00 0.00 63 1015.3
20260505060731 16 95 0.0 0.0 0.00 0.00 0.00 62 1015.2
20260505060230 16 240 0.0 0.0 0.00 0.00 0.00 62 1015.2
20260505055731 16 215 0.0 0.0 0.00 0.00 0.00 62 1015.2
20260505055238 16 200 0.0 0.0 0.00 0.00 0.00 62 1015.3
20260505054741 16 187 0.0 0.0 0.00 0.00 0.00 62 1015.2
20260505054227 16 159 0.0 0.0 0.00 0.00 0.00 61 1015.2
20260505053728 17 183 0.0 0.0 0.00 0.00 0.00 61 1015.2
20260505053230 17 230 0.0 1.6 0.00 0.00 0.00 61 1015.3
20260505052713 17 199 0.0 1.6 0.00 0.00 0.00 61 1015.4
20260505052222 17 249 0.0 0.0 0.00 0.00 0.00 60 1015.4
20260505051725 17 234 0.0 0.0 0.00 0.00 0.00 61 1015.4
20260505051233 17 258 0.0 0.0 0.00 0.00 0.00 60 1015.4
20260505050736 17 216 0.0 0.0 0.00 0.00 0.00 60 1015.4
20260505050222 17 211 0.0 0.0 0.00 0.00 0.00 59 1015.4
20260505041755 18 243 3.2 11.3 0.00 0.00 0.00 58 1015.2
20260505041215 18 206 0.0 12.9 0.00 0.00 0.00 58 1015.2
20260505040718 18 140 3.2 12.9 0.00 0.00 0.00 58 1015.2
20260505040246 18 220 0.0 0.0 0.00 0.00 0.00 58 1015.2
20260505035733 18 207 0.0 0.0 0.00 0.00 0.00 58 1015.2
20260505035214 18 234 0.0 0.0 0.00 0.00 0.00 58 1015.2
20260505034717 18 221 0.0 0.0 0.00 0.00 0.00 57 1015.2
20260505034219 18 234 0.0 1.6 0.00 0.00 0.00 57 1015.1
20260505033727 18 155 0.0 1.6 0.00 0.00 0.00 56 1015.2
20260505033236 18 245 0.0 0.0 0.00 0.00 0.00 56 1015.1
20260505032718 18 257 0.0 8.0 0.00 0.00 0.00 56 1015.1
20260505032241 18 250 0.0 8.0 0.00 0.00 0.00 56 1015.2
20260505031728 18 184 0.0 0.0 0.00 0.00 0.00 55 1015.2
20260505031228 18 231 0.0 0.0 0.00 0.00 0.00 55 1015.1
20260505030737 19 190 0.0 6.4 0.00 0.00 0.00 55 1015.2
20260505030217 19 165 0.0 17.7 0.00 0.00 0.00 54 1015.2
20260505025720 19 218 0.0 16.1 0.00 0.00 0.00 54 1015.2
20260505025229 19 201 1.6 20.9 0.00 0.00 0.00 53 1015.1
20260505024726 19 270 0.0 20.9 0.00 0.00 0.00 52 1015.1
20260505024232 19 230 1.6 9.7 0.00 0.00 0.00 51 1015.1
20260505023733 19 203 0.0 1.6 0.00 0.00 0.00 50 1015.1
20260505023213 19 193 0.0 1.6 0.00 0.00 0.00 49 1015.1
20260505022722 20 232 0.0 0.0 0.00 0.00 0.00 47 1015.0
20260505022225 20 265 0.0 6.4 0.00 0.00 0.00 46 1014.9
20260505021732 19 240 0.0 6.4 0.00 0.00 0.00 44 1014.9
20260505021214 19 220 0.0 1.6 0.00 0.00 0.00 43 1014.8
20260505020736 19 267 0.0 0.0 0.00 0.00 0.00 44 1014.8
20260505020221 19 190 0.0 0.0 0.00 0.00 0.00 45 1014.7
20260505015723 19 296 0.0 0.0 0.00 0.00 0.00 47 1014.7
20260505015245 19 238 0.0 0.0 0.00 0.00 0.00 46 1014.6
20260505014726 19 234 0.0 0.0 0.00 0.00 0.00 45 1014.6
20260505014212 19 266 0.0 0.0 0.00 0.00 0.00 44 1014.5
20260505013736 19 166 0.0 0.0 0.00 0.00 0.00 46 1014.5
20260505013222 19 203 0.0 0.0 0.00 0.00 0.00 45 1014.5
20260505012724 19 343 0.0 0.0 0.00 0.00 0.00 45 1014.4
20260505012224 19 345 0.0 0.0 0.00 0.00 0.00 45 1014.4
20260505011712 19 117 0.0 0.0 0.00 0.00 0.00 44 1014.3
20260505011218 19 247 0.0 0.0 0.00 0.00 0.00 44 1014.3
20260505010720 19 260 0.0 0.0 0.00 0.00 0.00 44 1014.3
20260505010222 19 246 0.0 0.0 0.00 0.00 0.00 45 1014.2
20260505005729 20 153 0.0 0.0 0.00 0.00 0.00 42 1014.1
20260505005230 20 153 0.0 0.0 0.00 0.00 0.00 42 1014.1
20260505004738 20 153 0.0 0.0 0.00 0.00 0.00 41 1014.0
20260505004218 20 153 0.0 0.0 0.00 0.00 0.00 41 1013.9
20260505003720 20 153 0.0 0.0 0.00 0.00 0.00 39 1013.9
20260505003219 20 153 0.0 0.0 0.00 0.00 0.00 39 1013.8
20260505002726 21 153 0.0 0.0 0.00 0.00 0.00 38 1013.7
20260505002226 21 153 0.0 0.0 0.00 0.00 0.00 38 1013.7
20260505001713 21 172 0.0 0.0 0.00 0.00 0.00 38 1013.7
20260505001212 21 286 0.0 0.0 0.00 0.00 0.00 35 1013.7
20260505000714 21 288 0.0 0.0 0.00 0.00 0.00 35 1013.5
20260505000223 22 292 0.0 0.0 0.00 0.00 0.00 35 1013.5
20260504235723 22 292 0.0 0.0 0.00 0.00 0.00 32 1013.5
20260504235250 22 292 0.0 0.0 0.00 0.00 0.00 32 1013.5
20260504234711 22 292 0.0 0.0 0.00 0.00 0.00 31 1013.3
20260504234221 22 292 0.0 0.0 0.00 0.00 0.00 32 1013.3
20260504233722 22 292 0.0 0.0 0.00 0.00 0.00 30 1013.3
20260504233223 23 292 0.0 0.0 0.00 0.00 0.00 31 1013.3
20260504232728 23 292 0.0 8.0 0.00 0.00 0.00 31 1013.2
20260504232228 23 249 0.0 1.6 0.00 0.00 0.00 34 1013.2
20260504231735 23 253 0.0 0.0 0.00 0.00 0.00 34 1013.2
20260504231214 23 278 0.0 0.0 0.00 0.00 0.00 30 1013.1
20260504230718 23 149 0.0 0.0 0.00 0.00 0.00 31 1013.2
20260504230241 23 188 0.0 0.0 0.00 0.00 0.00 31 1013.2
20260504225729 23 196 0.0 1.6 0.00 0.00 0.00 29 1013.1
20260504225231 23 230 0.0 8.0 0.00 0.00 0.00 32 1013.2
20260504224711 24 268 3.2 6.4 0.00 0.00 0.00 30 1013.2
20260504224219 24 253 0.0 1.6 0.00 0.00 0.00 27 1013.2
20260504223717 24 251 0.0 1.6 0.00 0.00 0.00 28 1013.3
20260504223226 24 261 0.0 0.0 0.00 0.00 0.00 28 1013.3
20260504222728 24 179 0.0 0.0 0.00 0.00 0.00 29 1013.4
20260504222225 24 188 0.0 0.0 0.00 0.00 0.00 29 1013.2
20260504221732 24 212 0.0 0.0 0.00 0.00 0.00 32 1013.3
20260504221233 24 212 0.0 0.0 0.00 0.00 0.00 31 1013.3
20260504220741 24 157 0.0 0.0 0.00 0.00 0.00 32 1013.3
20260504220220 24 203 0.0 1.6 0.00 0.00 0.00 29 1013.2
20260504215720 24 195 0.0 1.6 0.00 0.00 0.00 28 1013.2
20260504215226 24 255 0.0 0.0 0.00 0.00 0.00 28 1013.3
20260504214727 24 229 0.0 0.0 0.00 0.00 0.00 29 1013.4
20260504214233 24 238 0.0 0.0 0.00 0.00 0.00 28 1013.4
20260504213714 24 174 0.0 9.7 0.00 0.00 0.00 29 1013.3
20260504213301 24 278 1.6 14.5 0.00 0.00 0.00 28 1013.3
20260504212720 25 292 3.2 14.5 0.00 0.00 0.00 28 1013.4
20260504212247 25 209 0.0 0.0 0.00 0.00 0.00 28 1013.3
20260504211727 25 223 0.0 0.0 0.00 0.00 0.00 29 1013.4
20260504211228 25 263 0.0 0.0 0.00 0.00 0.00 28 1013.4
20260504210736 25 259 0.0 4.8 0.00 0.00 0.00 29 1013.5
20260504210216 25 215 0.0 20.9 0.00 0.00 0.00 27 1013.4
20260504205718 25 257 3.2 20.9 0.00 0.00 0.00 28 1013.5
20260504205223 25 206 0.0 0.0 0.00 0.00 0.00 28 1013.5
20260504204722 25 215 0.0 0.0 0.00 0.00 0.00 28 1013.5
20260504204224 25 228 0.0 0.0 0.00 0.00 0.00 28 1013.5
20260504203732 25 193 0.0 0.0 0.00 0.00 0.00 28 1013.6
20260504203237 25 248 0.0 0.0 0.00 0.00 0.00 28 1013.7
20260504202718 25 269 0.0 0.0 0.00 0.00 0.00 28 1013.8
20260504202217 25 238 0.0 0.0 0.00 0.00 0.00 28 1013.9
20260504201718 25 230 0.0 0.0 0.00 0.00 0.00 28 1014.0
20260504201225 24 245 0.0 0.0 0.00 0.00 0.00 27 1013.9
20260504200727 24 212 0.0 0.0 0.00 0.00 0.00 28 1014.0
20260504200234 24 207 0.0 0.0 0.00 0.00 0.00 28 1013.8
20260504195713 24 336 0.0 0.0 0.00 0.00 0.00 27 1014.0
20260504195214 24 278 0.0 0.0 0.00 0.00 0.00 28 1014.1
20260504194739 24 246 0.0 0.0 0.00 0.00 0.00 28 1014.2
20260504194241 25 147 0.0 4.8 0.00 0.00 0.00 29 1014.2
20260504193747 25 169 0.0 16.1 0.00 0.00 0.00 28 1014.3
20260504193226 25 195 1.6 16.1 0.00 0.00 0.00 28 1014.4
20260504192733 25 179 3.2 9.7 0.00 0.00 0.00 29 1014.4
20260504192213 25 226 3.2 16.1 0.00 0.00 0.00 28 1014.5
20260504191715 25 236 4.8 16.1 0.00 0.00 0.00 28 1014.7
20260504191226 25 248 0.0 12.9 0.00 0.00 0.00 29 1014.6
20260504190726 24 242 3.2 12.9 0.00 0.00 0.00 27 1014.5
20260504190225 25 217 0.0 0.0 0.00 0.00 0.00 28 1014.7
20260504185752 25 204 0.0 0.0 0.00 0.00 0.00 28 1014.7
20260504185239 25 249 0.0 0.0 0.00 0.00 0.00 28 1014.7
20260504184719 25 272 0.0 1.6 0.00 0.00 0.00 27 1014.7
20260504184217 24 249 0.0 1.6 0.00 0.00 0.00 27 1014.9
20260504183725 24 332 0.0 0.0 0.00 0.00 0.00 30 1014.9
20260504183223 24 189 0.0 3.2 0.00 0.00 0.00 29 1015.1
20260504182753 25 230 0.0 19.3 0.00 0.00 0.00 28 1015.1
20260504182232 24 233 4.8 22.5 0.00 0.00 0.00 29 1015.1
20260504181719 24 247 1.6 22.5 0.00 0.00 0.00 29 1015.2
20260504181219 24 316 1.6 11.3 0.00 0.00 0.00 29 1015.2
20260504180723 24 326 3.2 22.5 0.00 0.00 0.00 29 1015.4
20260504180231 24 195 4.8 22.5 0.00 0.00 0.00 29 1015.4
20260504175731 24 205 6.4 14.5 0.00 0.00 0.00 31 1015.4
20260504175234 24 245 1.6 9.7 0.00 0.00 0.00 31 1015.5
20260504174737 23 241 0.0 6.4 0.00 0.00 0.00 28 1015.4
20260504174219 23 167 0.0 6.4 0.00 0.00 0.00 31 1015.4
20260504173729 23 232 1.6 6.4 0.00 0.00 0.00 29 1015.5
20260504173256 23 272 0.0 1.6 0.00 0.00 0.00 31 1015.5
20260504172721 23 213 0.0 0.0 0.00 0.00 0.00 30 1015.6
20260504172221 23 255 0.0 0.0 0.00 0.00 0.00 29 1015.7
20260504171721 23 210 0.0 1.6 0.00 0.00 0.00 28 1015.9
20260504171229 24 236 0.0 6.4 0.00 0.00 0.00 32 1016.0
20260504170731 24 216 0.0 6.4 0.00 0.00 0.00 31 1016.0
20260504170238 23 333 1.6 6.4 0.00 0.00 0.00 31 1016.1
20260504160255 22 263 4.8 12.9 0.00 0.00 0.00 40 1016.9